Starlink 5250

operational
NORAD ID: 54200 Int'l Des: 2022-141 Owner: SPXS Country: US Constellation: starlink
LEOCIRCULAR

About Starlink 5250

Description loading...

Live Position

Loading 3D Globe...

Upcoming Passes

Altitude History

Altitude vs Time

uPlot chart will show altitude changes over time

Two-Line Element Set

1 54200U 22141AV 26062.14815417 .00000540 00000-0 52022-4 0 9992
2 54200 53.2187 23.2496 0001495 85.2037 274.9126 15.08839601185016
Epoch: Mar 3, 2026 • Age: 11 hours

Current Status

Altitude 540.4 km
Velocity 7.60 km/s
Sub-Earth Point 25.99°N, 138.98°W
Launch Date Oct 28, 2022
Age 3.3 years
Type internet

Technical Details

Classification Payload
Mass 305.00 kg
Dry Mass 290.00 kg
Total Mass 305.00 kg
Length 0.20 m
Diameter 2.80 m
Span 9.00 m
Shape Box + pan
Manufacturer SPXS
Bus Type Starlink
Phase Status In Orbit
Owner/State SPXS/US

Large Constellations

Loading constellations...